Location: Kawakawa
(35.3830°S, 174.0670°E)
Time: 06:20:30
(UTC+12:00)

Daily predictions for brighter satellites

Satellite Brightness Start Highest point End
(mag) Time Altitude Azimuth Time Altitude Azimuth Time Altitude Azimuth
CZ-4B R/B 3.4 18:07:52 10° SSE 18:13:11 51° E 18:18:20 10° N
Cosmos 1452 Rocket 4.0 18:08:23 10° N 18:13:18 41° ENE 18:18:18 10° SSE
CENTAUR R/B 2.5 18:10:35 10° SW 18:16:04 70° WNW 18:21:11 10° NNE
ASTRO E2 4.2 18:13:07 10° NW 18:16:33 27° NNE 18:20:00 10° ENE
MOS 1 Rocket 4.2 18:13:55 10° NE 18:17:44 25° ESE 18:21:25 10° SSE
SEDSat Delta rocket 4.1 18:19:26 10° NW 18:23:03 30° NNE 18:26:40 10° ENE
PAYLOAD B 4.4 18:17:55 10° SSE 18:23:37 88° WSW 18:29:13 10° NNW
Cosmos 1633 2.6 18:22:16 10° S 18:25:56 83° W 18:29:31 10° N
GPS 2-04 Rocket1 3.4 18:23:50 10° NW 18:27:34 40° NNE 18:31:00 11° E
Cosmos 1842 Rocket 4.3 18:24:56 10° NNW 18:29:23 60° W 18:33:54 10° S
Envisat 3.0 18:26:04 10° SSE 18:31:14 75° ENE 18:36:19 10° N
CORIOLIS 4.4 18:26:13 10° SSE 18:31:30 49° E 18:36:44 10° N
Cosmos 1441 Rocket 3.9 18:27:55 10° S 18:31:36 34° ESE 18:35:10 10° NE
deb Kosmos-1763 4.1 18:30:05 10° SSW 18:33:43 81° WNW 18:37:19 10° NNE
BREEZE-M DEB (TANK) 1.9 18:32:10 10° WSW 18:34:21 69° NW 18:38:19 10° NE
Cosmos 1869 4.4 18:31:12 10° NNW 18:34:59 49° W 18:38:49 10° S
AQUARIUS 4.2 18:33:11 10° SSE 18:37:44 65° E 18:42:13 10° N
Cosmos 676 Rocket 4.0 18:34:22 10° SSW 18:39:39 71° ESE 18:44:55 10° NNE
Cosmos 1420 Rocket 4.4 18:34:41 10° NNW 18:39:54 67° WSW 18:45:09 10° SSE
Cosmos 332 Rocket 3.9 18:35:13 10° NNW 18:40:09 84° WSW 18:45:08 10° SSE
Cosmos 1606 4.0 18:37:36 10° NE 18:40:20 19° E 18:43:06 10° SE
Lacrosse 4 Rocket 3.1 18:41:07 10° SSE 18:44:11 18° SE 18:45:24 16° ESE
Cosmos 1151 Rocket 4.4 18:41:55 10° NE 18:44:51 18° E 18:46:29 15° ESE
CZ-2C R/B 3.3 18:41:45 10° NE 18:46:39 34° ESE 18:51:39 10° S
Cosmos 2366 rocket 4.1 18:40:54 10° S 18:47:21 87° W 18:53:41 10° N
Sich 1 3.8 18:45:13 10° SSE 18:49:12 31° ESE 18:53:08 10° NE
Aureole 1 Rocket 3.2 18:49:03 10° SSW 18:52:51 77° WNW 18:57:44 10° NNE
OAO 3 Copernicus 4.3 18:48:33 10° W 18:53:41 88° N 18:57:14 20° E
Milstar 3 Cent rocket 3.1 18:48:33 10° WNW 18:54:56 42° N 18:58:40 14° ENE
Cosmos 2369 Rocket 2.2 18:50:31 10° NNW 18:56:14 81° ENE 19:02:01 10° SSE
Cosmos 1743 Rocket 4.1 18:53:14 10° SSW 18:57:37 61° W 19:01:58 10° N
IRS-1C Rocket 4.3 18:56:12 10° SSE 19:01:24 50° E 19:06:31 10° N
Cosmos 1943 Rocket 2.8 18:57:29 10° NW 19:02:54 57° WSW 19:08:22 10° SSE
CZ-4 R/B 3.0 19:07:53 17° NE 19:07:53 17° NE 19:09:13 10° NNE
Cosmos 1110 Rocket 4.1 19:03:42 10° N 19:08:47 54° ENE 19:13:55 10° SSE
FengYun 1-2 T 4.2 19:07:24 10° SSE 19:13:04 81° ENE 19:18:37 10° N
Cosmos 2263 4.1 19:07:58 10° NNW 19:13:41 81° ENE 19:19:24 10° SSE
SL-27 R/B 4.1 19:11:48 10° S 19:13:18 20° SSE 19:13:18 20° SSE
Cosmos 1741 Rocket 4.1 19:10:09 10° S 19:15:18 52° ESE 19:20:24 10° NE
CZ-4 R/B 4.5 19:18:43 16° SSE 19:21:55 56° E 19:26:01 10° N
Abrixas rocket 3.8 19:19:41 10° NNW 19:21:00 20° N 19:21:00 20° N
CZ-4C R/B 3.4 19:17:25 10° NW 19:25:43 66° WSW 19:33:00 10° SSE
Cosmos 1666 Rocket 3.5 19:23:49 10° S 19:28:11 57° E 19:30:12 29° NNE
IRIDIUM 106 4.4 19:23:25 10° S 19:28:34 50° E 19:33:37 10° NNE
H-2A R/B 3.6 19:24:26 10° WNW 19:29:41 73° N 19:41:40 28° E
DELTA 2 R/B (1) 3.9 19:25:17 10° W 19:30:47 57° S 19:32:42 38° SE
ATLAS 3B R/B 3.3 19:29:12 10° SW 19:36:10 57° WNW 19:42:49 10° NNE
Cosmos 1939 Rocket 2.8 19:35:32 24° S 19:37:52 83° WSW 19:41:46 10° NNW
Okean-O 2.5 19:39:15 24° SSE 19:41:58 86° ENE 19:46:25 10° NNW
Cosmos 1933 3.4 19:43:20 10° N 19:47:25 80° W 19:47:32 79° WSW
Helios 1A Rocket 4.2 19:48:27 10° S 19:52:20 40° WSW 19:56:10 10° NW
CZ-2C R/B 3.8 19:53:39 63° S 19:53:39 63° S 19:57:28 10° SSW
Cosmos 1331 Rocket 4.4 19:48:10 10° NNW 19:53:16 61° WSW 19:57:18 17° S
Cosmos 1633 Rocket 3.4 19:50:53 10° S 19:54:34 59° SSW 19:54:34 59° SSW
ASTRO E2 3.9 19:52:46 10° WNW 19:55:39 37° NW 19:55:39 37° NW
Cosmos 1833 4.5 19:53:32 10° SSW 19:58:09 51° SSE 19:58:09 51° SSE
Cosmos 1934 Rocket 3.9 19:54:29 10° S 20:00:48 85° E 20:07:08 10° N
Cosmos 1328 Rocket 4.0 19:57:15 10° NNW 20:01:39 60° W 20:02:29 50° SW
Meteor 1-25 Rocket 4.5 20:00:18 10° S 20:04:45 55° S 20:04:45 55° S
GPS 2-04 Rocket1 4.3 20:03:05 10° W 20:05:14 31° W 20:05:14 31° W
Cosmos 1339 Rocket 4.3 20:01:04 10° N 20:07:12 84° E 20:13:22 10° S
SEDSat Delta rocket 4.3 20:04:46 10° WNW 20:07:12 32° NW 20:07:12 32° NW
Intelsat 5-1 Rocket 4.2 20:12:38 10° WNW 20:21:24 28° NNW 20:22:12 27° N
Lacrosse 4 Rocket 3.1 20:18:46 10° SW 20:21:48 34° WSW 20:21:48 34° WSW
BREEZE-M DEB (TANK) 4.1 20:20:34 10° NW 20:39:25 78° N 20:39:25 78° N
